6P/d'Arrest E C 2000 2008 08 14.9663 1.353724 0.612767 178.1336 138.9339 19.5151 7.5 40.0 7P/Pons-Winnecke E C 2000 2008 09 26.6083 1.253104 0.634826 172.3139 93.4179 22.3096 10.0 15.0 8P/Tuttle E C 2000 2008 01 26.8949 1.028148 0.819561 207.5248 270.3490 54.9668 8.0 20.0 9P/Tempel E C 2000 2011 01 12.2668 1.509240 0.516901 178.9296 68.9277 10.5245 5.5 25.0 10P/Tempel E C 2000 2010 07 04.8723 1.423146 0.536264 195.6229 117.8315 12.0227 5.0 25.0 14P/Wolf E C 2000 2009 02 27.2831 2.724147 0.357869 158.9974 202.1187 27.9444 5.5 30.0 15P/Finlay E C 2000 2008 06 22.5945 0.969941 0.721504 347.5067 13.7983 6.8171 12.0 10.0 17P/Holmes E C 2000 2007 05 04.8086 2.053122 0.432857 24.3224 326.8536 19.1161 10.0 15.0 19P/Borrelly E C 2000 2008 07 22.3351 1.354434 0.624532 353.3657 75.4365 30.3244 4.5 25.0 22P/Kopff E C 2000 2009 05 25.4230 1.577593 0.544400 162.8224 120.8923 4.7237 3.0 26.0 24P/Schaumasse E C 2000 2009 08 09.6289 1.213924 0.703600 58.0011 79.7185 11.7293 6.5 35.0 29P/Schwassmann-Wachmann E C 2000 2004 07 03.1617 5.717498 0.045115 48.3485 312.6347 9.3945 4.0 10.0 30P/Reinmuth E C 2000 2010 04 19.5968 1.884042 0.500791 13.2241 119.7532 8.1225 9.5 15.0 31P/Schwassmann-Wachmann E C 2000 2010 09 30.3312 3.423778 0.192205 18.0697 114.1879 4.5475 5.0 20.0 36P/Whipple E C 2000 2011 12 31.6411 3.088107 0.258516 201.8996 182.3950 9.9357 8.5 15.0 43P/Wolf-Harrington E C 2000 2010 07 01.5473 1.357198 0.595103 191.2932 250.0422 15.9772 8.0 15.0 44P/Reinmuth E C 2000 2008 02 18.4132 2.106896 0.428497 58.1213 286.6020 5.9043 8.3 15.0 46P/Wirtanen E C 2000 2008 02 02.4602 1.056931 0.658121 356.3185 82.1665 11.7403 9.0 15.0 47P/Ashbrook-Jackson E C 2000 2009 01 31.9991 2.799127 0.319063 357.6930 356.9828 13.0531 1.0 28.0 49P/Arend-Rigaux E C 2000 2011 10 18.9016 1.414468 0.601890 333.0283 118.9371 19.1063 11.3 11.0 54P/de Vico-Swift-NEAT E C 2000 2009 11 28.5135 2.171755 0.427030 1.9406 358.8616 6.0670 10.0 15.0 57P/du Toit-Neujmin-Delporte E C 2000 2008 12 25.9437 1.723741 0.500102 115.2831 188.8247 2.8485 12.5 15.0 59P/Kearns-Kwee E C 2000 2009 03 07.6295 2.355532 0.475156 127.5273 313.0361 9.3412 7.0 15.0 61P/Shajn-Schaldach E C 2000 2008 09 06.1338 2.108045 0.426722 221.6446 163.1114 6.0091 6.0 25.0 64P/Swift-Gehrels E C 2000 2009 06 14.2956 1.377010 0.689544 96.3046 300.7414 8.9514 8.5 30.0 65P/Gunn E C 2000 2010 03 02.0144 2.440529 0.319539 196.5992 68.3597 10.3857 5.0 15.0 67P/Churyumov-Gerasimenko E C 2000 2009 02 28.3641 1.246496 0.640213 12.6998 50.1958 7.0408 11.0 10.0 68P/Klemola E C 2000 2009 01 20.9663 1.759031 0.640457 153.9745 175.3289 11.1448 10.0 10.0 74P/Smirnova-Chernykh E C 2000 2009 07 30.4390 3.557660 0.147587 87.2572 77.1026 6.6474 5.0 15.0 77P/Longmore E C 2000 2009 07 07.8488 2.310327 0.358113 196.6948 14.9167 24.3983 7.0 20.0 81P/Wild E C 2000 2010 02 22.7485 1.597838 0.537369 41.8137 136.0972 3.2375 7.0 15.0 82P/Gehrels E C 2000 2010 01 12.4773 3.633291 0.121921 226.3166 239.5183 1.1264 5.0 20.0 85P/Boethin E C 2000 2008 12 16.3724 1.147441 0.775348 53.5862 343.4491 4.2172 6.5 20.0 88P/Howell E C 2000 2009 10 12.4687 1.363507 0.561966 235.9606 56.7574 4.3817 11.0 15.0 89P/Russell E C 2000 2009 08 17.1771 2.279933 0.399320 249.3226 42.3911 12.0321 11.5 15.0 94P/Russell E C 2000 2010 03 29.8581 2.239971 0.363010 92.8775 70.9216 6.1829 9.0 15.0 97P/Metcalf-Brewington E C 2000 2011 08 23.0708 2.584877 0.459505 228.7909 185.3042 17.8718 5.5 15.0 99P/Kowal E C 2000 2007 01 27.2463 4.732823 0.229783 174.2474 28.2479 4.3327 4.5 15.0 100P/Hartley E C 2000 2009 12 06.1406 1.982377 0.418754 181.7049 37.8476 25.6527 9.0 20.0 104P/Kowal E C 2000 2010 05 04.5040 1.178977 0.638756 200.4330 235.6319 10.2706 12.5 10.0 110P/Hartley E C 2000 2008 02 03.1773 2.487409 0.312487 167.7069 287.7388 11.6791 1.0 30.0 116P/Wild E C 2000 2009 07 18.8676 2.174942 0.374617 173.5919 21.0335 3.6129 2.5 25.0 117P/Helin-Roman-Alu E C 2000 2005 12 21.0788 3.042390 0.255423 222.9909 58.9391 8.7034 2.5 20.0 118P/Shoemaker-Levy E C 2000 2010 01 02.3171 1.984014 0.427227 302.1383 151.8073 8.5094 12.0 10.0 119P/Parker-Hartley E C 2000 2005 05 22.6848 3.039586 0.290508 181.1136 244.0744 5.1905 3.5 20.0 124P/Mrkos E C 2000 2008 04 27.3311 1.469458 0.542493 181.4997 1.2852 31.3603 13.5 7.0 126P/IRAS E C 2000 2010 02 22.7130 1.713301 0.696396 356.7469 357.7653 45.8278 6.0 20.0 127P/Holt-Olmstead E C 2000 2009 10 21.3259 2.195724 0.362704 6.5239 13.6877 14.3194 11.0 15.0 128P/Shoemaker-Holt E C 2000 2007 06 13.3448 3.066600 0.320257 210.3766 214.3784 4.3566 8.5 10.0 129P/Shoemaker-Levy E C 2000 2006 02 01.6359 2.575002 0.306154 206.7090 295.4454 3.6122 11.0 10.0 131P/Mueller E C 2000 2012 01 08.3198 2.419686 0.342517 179.6422 214.2180 7.3540 11.0 10.0 136P/Mueller E C 2000 2007 10 22.6772 2.961155 0.293483 224.9585 137.5513 9.4277 11.0 10.0 137P/Shoemaker-Levy E C 2000 2009 05 13.5701 1.915285 0.574498 140.8130 233.1209 4.8537 11.0 10.0 139P/Vaisala-Oterma E C 2000 2008 04 19.4574 3.402648 0.247039 165.5401 242.4436 2.3290 9.5 10.0 142P/Ge-Wang E C 2000 2010 05 31.0320 2.487014 0.499310 175.8530 176.5414 12.3014 8.5 15.0 143P/Kowal-Mrkos E C 2000 2009 06 12.1982 2.538199 0.409802 320.7603 245.3684 4.6899 13.5 5.0 144P/Kushida E C 2000 2009 01 26.8501 1.438946 0.627795 216.0919 245.5568 4.1092 8.5 20.0 145P/Shoemaker-Levy E C 2000 2009 03 26.6162 1.891352 0.542157 10.1421 26.9025 11.2992 13.5 10.0 148P/Anderson-LINEAR E C 2000 2008 05 22.7006 1.702227 0.537838 6.6478 89.7988 3.6784 16.0 5.0 149P/Mueller E C 2000 2010 02 19.2809 2.650716 0.388630 43.7897 145.2662 29.7354 8.0 20.0 150P/LONEOS E C 2000 2008 11 25.9864 1.767730 0.545721 245.6687 272.4279 18.5004 13.5 10.0 152P/Helin-Lawrence E C 2000 2012 07 09.1975 3.111118 0.308293 163.9179 91.9596 9.8710 11.5 10.0 157P/Tritton E C 2000 2010 02 20.4879 1.360651 0.601211 148.6978 300.1178 7.2782 10.0 10.0 158P/Kowal-LINEAR E C 2000 2012 09 16.1616 4.581833 0.029186 231.5772 137.3095 7.9084 9.0 10.0 162P/Siding Spring E C 2000 2010 03 08.4435 1.232823 0.596079 356.3170 31.2525 27.8166 12.0 10.0 164P/Christensen E C 2000 2011 06 02.6788 1.673385 0.541309 325.9591 88.3637 16.2693 11.0 10.0 166P/NEAT E C 2000 2002 05 13.9255 8.544769 0.382092 321.4916 64.4487 15.3718 5.5 10.0 167P/CINEOS E C 2000 2001 05 15.2309 11.814276 0.273950 344.6707 295.7675 19.0879 9.5 5.0 169P/NEAT E C 2000 2009 11 30.3058 0.607674 0.766786 217.9626 176.1949 11.2996 16.0 5.0 172P/Yeung E C 2000 2008 10 13.0395 2.240841 0.362183 179.0772 40.0726 11.5158 13.0 10.0 173P/Mueller E C 2000 2008 05 17.6109 4.213759 0.260848 29.7301 100.5580 16.4938 7.5 10.0 174P/Echeclus E C 2000 2015 04 18.1603 5.831998 0.457922 162.5215 173.3778 4.3403 9.5 5.0 176P/LINEAR E C 2000 2011 07 02.8620 2.575694 0.193297 35.9819 346.5094 0.2378 15.0 5.0 179P/Jedicke E C 2000 2007 12 02.9197 4.086299 0.308599 295.4437 115.8487 19.8745 2.5 20.0 180P/NEAT E C 2000 2008 05 26.8950 2.469586 0.357471 94.9824 84.7520 16.9115 11.0 10.0 183P/Korlevic-Juric E C 2000 2008 05 08.2012 3.893760 0.135160 161.5580 5.8453 18.7358 12.5 5.0 186P/Garradd E C 2000 2008 03 31.4063 4.267101 0.122011 280.0590 327.7751 28.8758 7.5 10.0 187P/LINEAR E C 2000 2008 10 07.9051 3.693676 0.171462 132.1825 112.0047 13.7303 9.0 10.0 188P/LINEAR-Mueller E C 2000 2007 12 16.3012 2.551973 0.416373 26.4745 359.1319 10.5465 11.5 10.0 195P/Hill E C 2000 2009 01 20.9105 4.438519 0.314772 249.6035 243.2413 36.3608 8.5 10.0 199P/Shoemaker E C 2000 2009 04 09.8244 2.935407 0.508476 191.9217 92.9428 24.7565 10.0 10.0 200P/Larsen E C 2000 2008 08 25.3969 3.272224 0.333430 133.7682 234.8178 12.1200 9.0 10.0 202P/Scotti E C 2000 2009 02 06.9801 2.527010 0.330880 255.5526 194.5748 2.1849 13.5 10.0 203P/Korlevic E C 2000 2010 02 08.2077 3.182182 0.314809 154.5471 290.5608 2.9760 14.5 5.0 204P/LINEAR-NEAT E C 2000 2008 12 09.2424 1.940118 0.470566 355.0258 109.1057 6.5811 14.0 10.0 205P/Giacobini E C 2000 2008 09 10.0725 1.526595 0.568740 154.2429 179.6274 15.3034 13.0 10.0 209P/LINEAR E C 2000 2009 04 15.9772 0.913719 0.688937 149.7366 66.4472 19.1486 17.0 5.0 210P/Christensen E C 2000 2008 12 19.9698 0.534831 0.831618 345.7722 93.8844 10.2156 13.5 10.0 211P/Hill E C 2000 2009 05 07.7591 2.362077 0.337629 4.3916 117.2961 18.8721 12.5 10.0 212P/NEAT E C 2000 2008 12 03.2478 1.654358 0.578810 15.0383 98.9269 22.3975 17.0 5.0 213P/Van Ness E C 2000 2011 06 15.8568 2.124048 0.379727 3.1805 312.6945 10.2409 10.5 10.0 214P/LINEAR E C 2000 2009 01 05.6146 1.843785 0.488611 190.2702 348.2598 15.2135 13.0 10.0 215P/NEAT E C 2000 2010 06 07.6575 3.213847 0.200791 222.3720 75.4446 12.7907 11.0 10.0 216P/LINEAR E C 2000 2008 10 10.9207 2.159822 0.443938 151.5794 359.8942 9.0356 13.0 10.0 217P/LINEAR E C 2000 2009 09 08.9657 1.223968 0.689679 246.7441 125.6223 12.8816 12.0 10.0 218P/LINEAR E C 2000 2009 06 22.2865 1.701439 0.490270 10.6050 226.7437 18.1516 16.0 10.0 219P/LINEAR E C 2000 2010 03 06.0696 2.363929 0.352783 107.8189 231.0975 11.5224 11.0 10.0 220P/McNaught E C 2000 2009 12 15.4653 1.548585 0.502540 180.7742 150.1192 8.1325 15.0 10.0 221P/LINEAR E C 2000 2009 01 24.8669 1.783572 0.487491 39.6991 230.0164 11.4178 14.5 10.0 C/1995 O1 (Hale-Bopp) E C 2000 1997 03 31.2137 0.912001 0.994955 130.5960 282.8944 89.2373 -2.0 10.0 P/1996 R2 (Lagerkvist) E C 2000 2011 10 17.6143 2.614008 0.309305 334.0316 40.1886 2.6038 11.5 10.0 P/1997 T3 (Lagerkvist-Carsenty) E C 2000 2015 05 07.6366 4.248499 0.363394 333.5063 63.1416 4.8428 13.0 5.0 P/1998 U3 (Jager) E C 2000 2014 03 18.9549 2.154983 0.646730 180.9868 303.4974 19.0787 6.5 10.0 P/1998 U4 (Spahr) E C 2000 2012 04 22.7094 3.852107 0.310655 251.7540 181.5210 31.5454 8.0 10.0 P/1998 VS24 (LINEAR) E C 2000 2008 05 24.8422 3.422526 0.242666 244.4082 159.1727 5.0265 13.0 5.0 P/1999 XB69 (LINEAR) E C 2000 2009 07 25.9110 1.652120 0.630754 220.3270 256.0534 11.3060 17.5 5.0 P/1999 XN120 (Catalina) E C 2000 2008 11 12.3966 3.303955 0.210999 161.5887 285.4484 5.0258 13.5 5.0 P/2000 Y3 (Scotti) E C 2000 2011 12 30.2324 3.954285 0.203698 89.2446 354.3408 2.2667 9.0 10.0 P/2001 R6 (LINEAR-Skiff) E C 2000 2010 03 26.2429 2.177755 0.478026 308.4599 67.3792 17.3910 13.0 10.0 P/2001 YX127 (LINEAR) E C 2000 2011 08 25.5451 3.429978 0.176337 114.9782 31.0721 7.9166 14.5 5.0 P/2002 Q1 (Van Ness) E C 2000 2009 03 20.9533 1.551197 0.563897 185.0208 173.9959 36.2801 13.0 10.0 P/2002 S1 (Skiff) E C 2000 2010 08 15.3458 2.416683 0.417498 38.0787 346.8471 27.0453 11.0 10.0 P/2002 T1 (LINEAR) E C 2000 2009 08 25.4869 1.314750 0.639319 3.8243 14.2258 21.3957 18.0 10.0 C/2002 VQ94 (LINEAR) E C 2000 2006 02 06.4084 6.797644 0.963955 100.0641 34.9933 70.5628 9.5 5.0 P/2002 X2 (NEAT) E C 2000 2010 10 04.5240 2.126990 0.450448 351.6479 75.1344 23.5513 12.0 10.0 P/2003 A1 (LINEAR) E C 2000 2009 06 16.0400 1.916128 0.499922 340.2651 54.0759 44.3333 13.5 10.0 P/2003 CP7 (LINEAR-NEAT) E C 2000 2011 05 18.0942 3.030898 0.246260 42.6919 133.0974 12.3292 14.5 5.0 C/2003 WT42 (LINEAR) E C 2000 2006 04 09.8888 5.189563 0.999479 92.4352 48.4373 31.4329 11.5 5.0 P/2004 A1 (LONEOS) E C 2000 2004 09 05.3551 5.489030 0.310217 21.9369 124.9777 10.5508 6.5 10.0 C/2004 B1 (LINEAR) E C 2000 2006 02 07.5522 1.607247 1.001129 328.0035 272.8365 114.0969 10.5 5.0 C/2004 D1 (NEAT) E C 2000 2006 02 09.9981 4.974276 0.998540 75.5224 62.2394 45.5594 11.5 5.0 P/2004 F3 (NEAT) E C 2000 2013 01 28.7411 2.871580 0.285975 176.4358 78.8214 15.9817 9.0 10.0 P/2004 FY140 (LINEAR) E C 2000 2004 08 02.1722 4.111369 0.166920 239.5776 327.1813 2.1267 12.5 5.0 P/2004 X1 (LINEAR) E C 2000 2009 09 03.3342 0.780174 0.727244 345.4439 7.1254 5.1478 17.5 10.0 C/2005 EL173 (LONEOS) E C 2000 2007 03 05.4642 3.886967 1.002253 261.4828 344.8133 130.6694 11.5 5.0 P/2005 L1 (McNaught) E C 2000 2005 12 14.6315 3.148391 0.208839 149.9191 138.3031 7.7359 9.5 10.0 C/2005 L3 (McNaught) E C 2000 2008 01 16.6949 5.594417 1.000322 47.1692 288.7450 139.4496 4.0 10.0 P/2005 RV25 (LONEOS-Christensen) E C 2000 2006 11 04.8720 3.603153 0.166366 191.2995 246.8898 9.8851 9.5 10.0 P/2005 S2 (Skiff) E C 2000 2006 06 28.8926 6.397025 0.198286 229.8341 161.2107 3.1407 7.5 10.0 C/2005 S4 (McNaught) E C 2000 2007 07 19.5966 5.852705 0.998940 31.5522 318.2864 107.9591 5.0 10.0 P/2005 SB216 (LONEOS) E C 2000 2007 02 10.7567 3.814463 0.463330 83.4544 1.6732 24.1141 12.0 5.0 C/2006 E1 (McNaught) E C 2000 2007 01 07.7218 6.043467 1.002988 232.8798 95.0396 83.1887 6.0 10.0 P/2006 F1 (Kowalski) E C 2000 2008 02 19.2664 4.119781 0.119025 186.8158 124.7611 21.2752 8.0 10.0 C/2006 K1 (McNaught) E C 2000 2007 07 20.7974 4.425710 1.002731 296.4604 72.1173 53.8615 7.5 10.0 C/2006 K4 (NEAT) E C 2000 2007 11 29.5529 3.189477 0.998411 233.6591 116.6057 111.3427 6.0 10.0 C/2006 OF2 (Broughton) E C 2000 2008 09 15.7012 2.431334 1.001195 95.6151 318.5067 30.1705 5.5 10.0 C/2006 P1 (McNaught) E C 2000 2007 01 12.5023 0.170818 0.999923 155.9806 267.3822 77.8744 6.0 10.0 C/2006 Q1 (McNaught) E C 2000 2008 07 03.8360 2.763786 0.999456 344.3805 199.5500 59.0518 5.0 10.0 C/2006 S3 (LONEOS) E C 2000 2012 04 17.1336 5.137832 0.999956 140.0348 38.3175 166.0267 2.0 10.0 C/2006 S5 (Hill) E C 2000 2007 12 09.6103 2.628853 0.972517 182.0708 281.5451 10.1312 8.0 10.0 P/2006 T1 (Levy) E C 2000 2012 01 12.4685 1.004018 0.668519 179.6995 279.7868 18.2947 10.5 10.0 C/2006 U6 (Spacewatch) E C 2000 2008 06 05.5096 2.498351 0.998909 276.6034 180.1813 84.8889 8.0 10.0 C/2006 V1 (Catalina) E C 2000 2007 11 25.7054 2.669531 0.987734 253.3800 335.5343 31.3339 8.0 10.0 C/2006 W3 (Christensen) E C 2000 2009 07 06.6618 3.126204 1.000035 133.5190 113.5726 127.0735 5.0 10.0 C/2007 B2 (Skiff) E C 2000 2008 08 21.0155 2.975585 0.996174 206.0569 14.8543 27.4943 6.0 10.0 P/2007 C2 (Catalina) E C 2000 2007 09 04.0923 3.777338 0.462243 179.3846 276.0925 8.6728 10.0 10.0 C/2007 D1 (LINEAR) E C 2000 2007 06 16.7094 8.790756 0.996066 340.0483 171.0916 41.5438 3.5 10.0 C/2007 D3 (LINEAR) E C 2000 2007 05 27.5182 5.206643 0.992580 309.0514 148.4250 45.9229 7.5 10.0 C/2007 G1 (LINEAR) E C 2000 2008 11 16.3408 2.647289 1.001682 223.9923 78.9954 88.3305 5.5 10.0 P/2007 H1 (McNaught) E C 2000 2007 08 17.9496 2.281534 0.378414 202.6987 144.3642 11.8750 10.0 10.0 C/2007 K3 (Siding Spring) E C 2000 2008 04 21.6236 2.050952 1.000560 23.5785 263.2478 16.2989 9.5 10.0 C/2007 M1 (McNaught) E C 2000 2008 08 12.2910 7.475474 0.995299 52.6726 326.8069 139.7209 6.0 10.0 C/2007 M2 (Catalina) E C 2000 2008 12 08.5886 3.540928 0.998824 220.6743 357.2884 80.9543 8.0 10.0 C/2007 N3 (Lulin) E C 2000 2009 01 10.6437 1.212240 1.000046 136.8685 338.5413 178.3737 6.5 10.0 C/2007 Q3 (Siding Spring) E C 2000 2009 10 07.2885 2.251609 1.000186 2.0977 149.4133 65.6504 4.5 10.0 P/2007 R1 (Larson) E C 2000 2007 08 24.3041 4.353050 0.278379 175.2147 181.6491 7.8745 8.0 10.0 C/2007 S2 (Lemmon) E C 2000 2008 09 14.1896 5.557603 0.556575 210.4160 296.2403 16.8589 6.5 10.0 C/2007 T5 (Gibbs) E C 2000 2008 05 23.9873 4.048838 0.912671 34.3831 109.8381 45.6142 8.0 10.0 C/2007 U1 (LINEAR) E C 2000 2008 08 07.1274 3.329628 1.001234 0.9545 50.0490 157.7880 9.0 10.0 C/2007 VO53 (Spacewatch) E C 2000 2010 04 26.3878 4.842790 0.999716 75.0166 59.7467 86.9971 7.0 10.0 C/2007 W1 (Boattini) E C 2000 2008 06 24.8631 0.849927 0.999966 306.5560 334.5155 9.8889 9.5 10.0 C/2007 Y2 (McNaught) E C 2000 2008 04 08.5463 4.209933 0.995860 257.7202 303.4647 98.5015 9.0 10.0 C/2008 A1 (McNaught) E C 2000 2008 09 29.1135 1.073131 1.000345 348.4669 277.8842 82.5485 6.5 10.0 C/2008 C1 (Chen-Gao) E C 2000 2008 04 16.7914 1.262493 0.999757 180.9191 307.7834 61.7845 10.0 10.0 P/2008 CL94 (Lemmon) E C 2000 2006 06 26.5469 5.429566 0.119589 81.6900 33.4550 8.3507 8.0 10.0 C/2008 E1 (Catalina) E C 2000 2008 08 11.7378 4.828747 0.548351 269.9816 189.0141 35.0401 7.0 10.0 C/2008 E3 (Garradd) E C 2000 2008 08 02.5171 5.531405 0.997724 218.1254 105.6746 105.0762 6.0 10.0 C/2008 FK75 (Lemmon-Siding Spring) E C 2000 2010 09 28.9907 4.511767 1.003137 80.3870 218.2565 61.1650 5.0 10.0 C/2008 G1 (Gibbs) E C 2000 2009 01 12.2068 3.989081 0.988828 63.7466 215.9154 72.8483 9.5 10.0 C/2008 H1 (LINEAR) E C 2000 2008 03 16.3566 2.760019 0.945529 96.0334 34.6347 75.5021 10.5 10.0 C/2008 J1 (Boattini) E C 2000 2008 07 13.2909 1.724501 0.989805 68.1356 273.4219 61.7760 10.0 10.0 P/2008 J2 (Beshore) E C 2000 2008 03 20.7092 2.406232 0.309138 131.6861 98.2503 10.2581 9.0 10.0 P/2008 J3 (McNaught) E C 2000 2009 03 10.7435 2.287176 0.412325 4.4132 9.8559 25.3993 12.0 10.0 P/2008 L2 (Hill) E C 2000 2008 08 18.6577 2.317579 0.613934 141.3378 217.9818 25.8582 12.5 10.0 C/2008 N1 (Holmes) E C 2000 2009 09 25.8756 2.783626 0.997157 100.8103 357.4721 115.5204 9.0 10.0 P/2008 O2 (McNaught) E C 2000 2009 04 21.8353 3.803640 0.153411 27.4993 325.8604 9.5183 9.0 10.0 C/2008 P1 (Garradd) E C 2000 2009 07 22.8942 3.896170 1.001940 11.8559 357.6762 64.3068 7.0 10.0 C/2008 Q1 (Maticic) E C 2000 2008 12 30.1633 2.959230 0.995065 104.4881 9.3061 118.6282 10.0 10.0 C/2008 Q3 (Garradd) E C 2000 2009 06 23.0977 1.798200 0.999695 340.8585 219.7347 140.7056 10.0 10.0 C/2008 R3 (LINEAR) E C 2000 2008 11 22.5041 1.909001 0.895991 84.1627 270.5589 43.2369 13.0 10.0 C/2008 S3 (Boattini) E C 2000 2011 06 04.2144 8.022239 1.001951 39.7633 54.9323 162.7071 4.0 10.0 P/2008 T1 (Boattini) E C 2000 2008 02 26.8058 3.043919 0.281017 35.9901 291.7400 2.0830 11.0 10.0 C/2008 T2 (Cardinal) E C 2000 2009 06 13.2413 1.202248 1.000055 215.8691 309.6783 56.3040 6.0 10.0 P/2008 T4 (Hill) E C 2000 2008 12 23.9398 2.511871 0.435290 1.2547 44.6812 6.3262 13.5 10.0 P/2008 WZ96 (LINEAR) E C 2000 2009 01 23.9212 1.646287 0.509801 337.6262 59.1095 6.9576 13.5 10.0 C/2008 X3 (LINEAR) E C 2000 2008 10 10.5648 1.901834 0.956376 140.7863 337.7518 66.4755 13.0 10.0 P/2008 Y1 (Boattini) E C 2000 2009 02 25.0975 1.271954 0.734917 162.3651 259.7089 8.8050 15.0 10.0 P/2008 Y2 (Gibbs) E C 2000 2009 01 22.3867 1.638417 0.543568 162.3296 330.8940 7.2754 16.0 10.0 P/2008 Y3 (McNaught) E C 2000 2009 01 11.8116 4.434219 0.447499 238.2643 262.9293 38.8123 8.5 10.0 P/2009 B1 (Boattini) E C 2000 2009 02 06.2106 2.426618 0.637439 128.5978 297.4359 22.2290 13.0 10.0 C/2009 B2 (LINEAR) E C 2000 2009 03 07.4008 2.327630 0.944597 192.4999 18.8168 156.8743 12.5 10.0 C/2009 E1 (Itagaki) E C 2000 2009 04 07.9214 0.599726 0.985034 48.9579 105.9620 127.4520 11.5 10.0 C/2009 F1 (Larson) E C 2000 2009 06 25.8905 1.830634 0.982668 219.5848 357.9500 171.3756 15.0 10.0 C/2009 F2 (McNaught) E C 2000 2009 11 14.3573 5.875168 0.983381 336.3645 214.0626 59.3488 6.0 10.0 C/2009 F4 (McNaught) E C 2000 2011 12 31.2687 5.455729 1.003681 260.3423 53.5642 79.3215 3.0 10.0 C/2009 F5 (McNaught) E C 2000 2008 11 04.8117 2.245219 0.971781 297.3612 219.0645 84.9882 10.0 10.0 C/2009 F6 (Yi-SWAN) E C 2000 2009 05 07.4413 1.274067 0.997043 129.7784 278.6795 85.7667 6.0 10.0 C/2009 G1 (STEREO) E C 2000 2009 04 16.5007 1.128700 0.997473 175.4383 120.6332 108.3101 9.0 10.0 P/2009 K1 (Gibbs) E C 2000 2009 06 25.8988 1.323147 0.640222 27.0484 172.7858 5.7467 17.0 10.0 C/2009 K2 (Catalina) E C 2000 2010 02 07.4813 3.244857 1.000000 147.7389 123.7818 66.8264 10.0 10.0 C/2009 K3 (Beshore) E C 2000 2011 01 09.266 3.90156 1.00000 251.413 0.032 146.680 8.5 10.0 C/2009 K4 (Gibbs) E C 2000 2009 06 18.951 1.55854 1.00000 127.191 29.880 34.809 13.0 10.0 C/2009 K5 (McNaught) E C 2000 2010 04 30.073 1.42146 1.00000 66.229 257.879 103.856 7.5 10.0 P/2009 L2 (Yang-Gao) E C 2000 2009 05 21.712 1.29714 0.62456 346.918 259.318 16.219 15.0 10.0